Tracking 19637 objects as of 18-Apr-2019
HD Live streaming from Space Station
objects crossing your sky now

COSMOS 1261 DEB

Track COSMOS 1261 DEB now!


NORAD ID: 35507
Int'l Code: 1981-031N
Perigee: 3,192.2 km
Apogee: 36,964.5 km
Inclination: 64.7 °
Period: 713.5 minutes
Semi major axis: 26449 km
RCS: 0.0562 m2 (small)
Launch date: March 31, 1981
Source: Commonwealth of Independent States (former USSR) (CIS)
Launch site: PLESETSK MISSILE AND SPACE COMPLEX (PKMTR)

Note: This is SATELLITE DEBRIS
aabbcc
Your satellite tracking list
Your tracking list is empty




NASA's NSSDC Master Catalog

Two Line Element Set (TLE):
1 35507U 81031N   19107.37830220 -.00000503 +00000-0 +00000-0 0  9995
2 35507 064.7292 256.3435 6384337 050.9330 350.3228 02.01827315084299
Source of the keplerian elements: AFSPC